Fairbanks, AK

2:19 PM AKST on February 23, 2018 (GMT -0900)
Fairbanks International

Weather History for PAFA - November, 2011

Change the Weather History Date:

Friday, November 4, 2011

  Actual Average Record
Temperature  
Mean Temperature 21 °F 8 °F  
Max Temperature 25 °F 16 °F 42 °F (1962)
Min Temperature 17 °F 1 °F -30 °F (1975)
Degree Days  
Heating Degree Days 44 57  
Month to date heating degree days 240 222  
Since 1 July heating degree days 2169 2481  
Cooling Degree Days 0 0  
Month to date cooling degree days 0 0  
Year to date cooling degree days 39 61  
Moisture  
Dew Point 16 °F    
Average Humidity 81    
Maximum Humidity 93    
Minimum Humidity 65    
Precipitation  
Precipitation 0.07 in 0.02 in 0.44 in (1990)
Month to date precipitation 0.08 0.09  
Year to date precipitation 8.21 9.59  
Snow  
Snow 1.40 in 0.50 in 6.40 in (1990)
Month to date snowfall 1.5 1.8  
Since 1 July snowfall 5.7 14.4  
Since 1 September snowfall 5.7 14.4  
Snow Depth 3.00 in    
Sea Level Pressure  
Sea Level Pressure 29.38 in    
Wind  
Wind Speed 4 mph (WSW)    
Max Wind Speed 20 mph    
Max Gust Speed 28 mph    
Visibility 6 miles    
Events Snow    
T = Trace of Precipitation, MM = Missing Value Source: NWS Daily Summary

Daily Weather History Graph

Daily Weather History Graph

Search for Another Location

Airport or City:

Trip Planner

Search our weather history database for the weather conditions in past years. The results will help you decide how hot, cold, wet, or windy it might be!

Date:

Astronomy

Nov. 04, 2011 Rise Set
Actual Time 9:48 AM AKDT 5:20 PM AKDT
Civil Twilight 8:52 AM AKDT 6:16 PM AKDT
Nautical Twilight 7:53 AM AKDT 7:15 PM AKDT
Astronomical Twilight 6:56 AM AKDT 8:12 PM AKDT
Moon 4:00 PM AKDT (11/4) 2:10 AM AKDT (11/4)
Length of Visible Light 9h 24m
Length of Day
7h 31m
Waxing Gibbous, 71% of the Moon is Illuminated
Nov 4
Waxing Gibbous
Nov 10
Full
Nov 18
Last Quarter
Nov 24
New
Dec 2
First Quarter

Hourly Weather History & Observations

Time (AKDT) Temp. Windchill Dew Point Humidity Pressure Visibility Wind Dir Wind Speed Gust Speed Precip Events Conditions
12:53 AM 21.0 °F - 15.1 °F 78% 29.31 in 10.0 mi Calm Calm - N/A   Overcast
1:53 AM 19.9 °F 13.4 °F 15.1 °F 81% 29.29 in 10.0 mi North 4.6 mph - N/A   Overcast
2:53 AM 19.0 °F 10.0 °F 15.1 °F 85% 29.27 in 10.0 mi North 6.9 mph - N/A   Overcast
3:53 AM 21.0 °F 16.2 °F 16.0 °F 81% 29.26 in 10.0 mi North 3.5 mph - N/A   Mostly Cloudy
4:53 AM 21.9 °F 15.7 °F 17.1 °F 82% 29.25 in 10.0 mi Variable 4.6 mph - N/A   Mostly Cloudy
5:53 AM 21.9 °F 17.2 °F 17.1 °F 82% 29.25 in 10.0 mi Variable 3.5 mph - N/A   Mostly Cloudy
6:53 AM 19.9 °F - 16.0 °F 85% 29.25 in 10.0 mi Calm Calm - N/A   Mostly Cloudy
7:53 AM 18.0 °F - 15.1 °F 88% 29.25 in 10.0 mi Calm Calm - N/A   Overcast
8:53 AM 18.0 °F - 15.1 °F 88% 29.26 in 10.0 mi Calm Calm - N/A   Overcast
9:53 AM 18.0 °F 12.7 °F 15.1 °F 88% 29.27 in 10.0 mi WSW 3.5 mph - N/A   Overcast
10:53 AM 19.9 °F - 16.0 °F 85% 29.29 in 10.0 mi Calm Calm - N/A   Overcast
11:53 AM 23.0 °F - 15.1 °F 72% 29.30 in 10.0 mi Calm Calm - N/A   Overcast
12:53 PM 24.1 °F - 14.0 °F 65% 29.31 in 10.0 mi Calm Calm - N/A   Overcast
1:53 PM 24.1 °F - 15.1 °F 69% 29.32 in 10.0 mi Calm Calm - N/A   Overcast
2:53 PM 24.1 °F - 15.1 °F 69% 29.33 in 10.0 mi Calm Calm - N/A   Overcast
3:53 PM 24.1 °F 19.7 °F 16.0 °F 71% 29.35 in 7.0 mi South 3.5 mph - 0.00 in Snow Light Snow
4:39 PM 23.0 °F 17.0 °F 17.6 °F 80% 29.34 in 2.0 mi SSW 4.6 mph - 0.00 in Snow Light Snow
4:48 PM 23.0 °F 17.0 °F 17.6 °F 80% 29.34 in 1.5 mi South 4.6 mph - 0.00 in Snow Light Snow
4:53 PM 23.0 °F 17.0 °F 18.0 °F 81% 29.38 in 1.2 mi South 4.6 mph - 0.00 in Snow Light Snow
5:18 PM 23.0 °F 17.0 °F 19.4 °F 86% 29.37 in 0.8 mi SSW 4.6 mph - 0.02 in Snow Light Snow
5:53 PM 21.9 °F 15.7 °F 19.0 °F 89% 29.42 in 1.0 mi SSW 4.6 mph - 0.03 in Snow Light Snow
6:10 PM 21.2 °F 12.6 °F 19.4 °F 93% 29.40 in 2.0 mi SSW 6.9 mph - 0.01 in Snow Light Snow
6:53 PM 21.0 °F 7.6 °F 15.1 °F 78% 29.49 in 2.5 mi West 15.0 mph 26.5 mph 0.01 in Snow Light Snow
7:12 PM 21.2 °F 11.7 °F 15.8 °F 80% 29.47 in 3.0 mi West 8.1 mph 18.4 mph 0.00 in Snow Light Snow
7:53 PM 19.9 °F 12.1 °F 16.0 °F 85% 29.53 in 3.0 mi Variable 5.8 mph - 0.00 in Snow Light Snow
8:53 PM 19.0 °F 3.2 °F 12.9 °F 77% 29.57 in 3.0 mi West 19.6 mph 27.6 mph 0.00 in Snow Light Snow
9:47 PM 19.4 °F 7.9 °F 14.0 °F 80% 29.58 in 2.0 mi West 10.4 mph 17.3 mph 0.01 in Snow Light Snow
9:53 PM 19.0 °F 10.0 °F 14.0 °F 81% 29.62 in 2.0 mi West 6.9 mph 17.3 mph 0.01 in Snow Light Snow
10:53 PM 19.0 °F 11.1 °F 14.0 °F 81% 29.65 in 2.0 mi Variable 5.8 mph - 0.01 in Snow Light Snow
11:53 PM 19.0 °F 9.0 °F 14.0 °F 81% 29.68 in 3.0 mi West 8.1 mph - 0.01 in Snow Light Snow